Theta_e
301 296 293 297 299 299 297 295 294 298 301 299 298 297 299 302 303 303 304 305 305 305 307 308 309 309 309 309 309 309 309 310 312 313 314 315 315 318 318 319 319 317 315 312
296 293 299 301 300 296 295 294 294 298 301 298 297 295 298 301 303 304 303 303 303 304 304 305 305 306 306 305 306 307 307 308 308 311 312 313 313 315 316 316 316 316 314 312
295 299 301 297 297 295 295 294 295 294 297 297 295 294 298 302 305 302 302 302 303 302 301 301 301 301 302 302 303 303 304 305 306 307 308 309 310 310 307 310 311 313 313 311
297 298 295 295 294 295 291 297 295 293 291 288 295 286 295 300 301 299 299 300 299 299 298 298 298 297 298 299 301 301 301 302 304 304 304 305 304 303 305 307 309 310 310 309
295 294 293 292 294 296 293 296 293 292 290 290 291 288 295 300 296 296 297 297 297 297 296 295 295 296 296 297 298 299 299 299 300 302 302 302 303 304 304 305 307 306 307 306
295 298 295 295 296 296 296 293 294 294 291 286 292 291 293 295 295 294 295 295 296 296 296 296 296 296 295 296 297 297 296 295 297 299 299 299 299 301 301 302 302 303 303 303
297 297 298 296 293 295 293 291 287 286 285 286 292 291 293 297 295 296 294 295 295 296 295 295 294 294 294 294 295 295 295 293 294 295 296 297 297 298 298 299 300 301 301 301
290 288 294 295 294 294 294 293 286 280 282 286 293 287 293 297 295 296 296 295 294 293 293 292 293 293 293 294 294 294 294 293 293 293 294 295 295 296 297 297 297 299 299 301
290 290 299 296 298 295 292 289 295 288 288 284 288 292 295 295 295 295 294 293 290 290 290 290 291 292 292 292 292 292 292 292 292 292 293 293 294 294 294 294 296 297 298 298
294 288 296 295 294 294 290 292 286 286 279 279 285 288 288 293 293 293 290 289 289 290 289 289 289 290 291 291 291 292 291 291 291 290 291 291 292 293 293 294 293 293 294 295
294 291 290 294 290 289 288 286 287 287 286 280 280 285 294 292 290 289 289 289 288 288 287 287 288 289 289 290 290 289 289 289 289 289 289 290 290 290 290 290 291 292 292 293
296 290 286 288 295 296 295 291 290 283 282 284 284 285 296 291 289 289 287 287 287 287 286 286 286 287 287 287 288 287 288 288 288 288 288 288 288 289 288 287 287 288 289 291
294 287 282 284 288 292 289 290 289 288 285 282 280 283 294 289 288 286 286 285 286 286 285 285 285 285 286 286 286 286 287 287 287 286 286 286 286 287 286 285 285 286 287 288
295 287 284 280 284 287 284 287 288 286 281 281 281 283 287 290 289 285 284 283 283 284 285 284 284 284 285 285 286 285 285 286 286 286 284 284 285 285 286 284 283 284 285 285
291 282 285 286 286 285 284 283 284 282 283 279 282 282 286 288 287 284 284 284 282 282 284 284 283 283 284 284 285 285 285 285 285 284 284 283 284 284 285 282 281 283 284 284
285 281 282 278 283 283 280 282 283 282 282 282 283 282 288 286 284 283 282 282 281 282 282 283 283 283 283 284 284 285 285 285 285 283 283 283 283 283 284 281 280 281 282 283
282 281 278 274 279 278 273 277 279 281 283 282 277 281 282 280 280 280 280 281 281 282 283 282 283 284 284 284 284 284 285 285 284 283 282 282 282 281 282 280 279 279 280 281
280 279 278 273 274 266 278 282 281 279 280 281 281 280 279 279 280 281 283 282 282 282 282 283 284 284 285 285 285 284 284 283 282 281 281 281 281 280 280 279 278 278 279 278
282 279 274 271 271 274 276 278 278 276 276 282 281 280 279 280 280 280 283 284 283 283 284 285 286 286 285 284 284 282 281 281 280 280 280 280 280 279 278 276 276 276 276 276
278 280 275 272 266 265 275 278 280 278 271 281 282 279 279 279 273 277 283 283 284 285 285 285 285 284 283 282 281 280 279 278 277 278 278 279 279 277 276 276 275 275 275 275
272 273 271 271 269 272 279 279 279 269 272 280 281 280 279 277 280 282 284 283 284 284 284 284 284 281 280 280 279 277 276 275 277 277 276 276 276 275 275 274 274 273 272 272
271 270 270 271 268 266 280 278 273 280 282 283 281 281 281 281 282 282 282 282 282 281 281 280 278 278 278 277 275 274 273 274 274 273 272 271 271 272 272 270 270 270 270 269
270 275 273 273 273 280 281 281 283 283 281 281 282 282 282 281 281 281 280 279 279 278 277 276 274 273 273 273 272 269 270 270 269 267 265 265 266 266 267 266 266 267 267 267
277 279 275 274 277 278 280 282 283 283 282 283 283 283 281 279 279 277 276 276 275 274 273 272 270 269 268 269 268 267 267 266 263 261 261 262 262 262 263 264 265 264 264 265
278 278 276 275 278 279 281 282 282 282 283 282 280 277 277 276 274 274 273 272 271 271 270 269 267 266 266 266 265 264 264 262 261 260 260 261 261 261 261 262 262 263 264 265
279 277 274 273 279 279 279 282 283 282 281 279 275 275 274 272 271 271 269 269 268 267 266 265 265 264 263 263 262 262 262 261 260 259 260 260 260 261 261 261 261 265 267 268
Wind_Speed
9 9 11 16 16 21 22 22 24 21 20 22 23 23 21 23 24 24 18 12 9 8 10 14 15 16 15 13 10 7 3 3 4 5 6 7 8 7 8 8 11 11 11 14
4 12 15 15 16 14 17 22 23 19 16 13 20 23 25 22 17 10 9 7 6 12 16 17 19 20 20 19 17 14 9 4 2 4 4 5 4 6 7 6 8 10 11 12
17 15 14 10 13 16 20 21 23 25 18 19 18 18 7 8 10 14 15 16 15 20 18 19 21 21 20 21 19 17 16 12 7 4 3 4 4 6 4 5 6 8 10 10
11 5 5 11 14 16 20 15 13 14 11 9 7 9 17 15 3 15 18 17 19 19 18 17 17 18 19 18 17 18 18 18 12 10 5 6 6 7 5 6 4 6 9 11
2 0 1 7 12 9 12 6 11 10 12 15 13 9 4 4 10 13 15 16 16 16 16 16 17 16 17 15 16 15 17 18 17 14 10 6 7 6 6 7 5 6 7 10
14 2 6 8 4 6 6 10 14 15 7 9 14 16 5 5 7 16 12 13 14 15 14 14 13 13 16 16 15 15 16 16 16 15 15 12 10 9 7 7 7 4 4 7
6 11 8 4 6 6 6 7 8 6 7 7 7 7 11 5 9 13 12 11 12 12 12 13 14 13 13 13 13 12 14 15 14 13 13 14 14 12 10 9 8 9 6 6
6 9 10 12 8 7 9 11 6 6 10 16 13 8 6 10 14 12 12 11 10 12 11 12 11 11 12 12 12 11 11 11 11 13 14 12 13 8 9 10 9 8 9 8
4 8 3 7 8 2 3 8 11 6 3 6 10 15 9 15 13 11 8 9 10 10 10 12 11 12 14 13 13 12 12 10 12 12 11 11 12 13 11 11 10 9 10 9
3 12 5 5 2 8 6 5 4 3 7 15 14 12 10 13 8 6 8 9 11 13 14 14 14 15 13 13 13 13 13 13 13 13 11 11 12 11 11 11 11 10 10 12
5 5 14 9 8 12 5 5 4 2 5 7 10 9 6 9 7 7 8 8 9 10 12 12 12 13 13 13 13 13 13 14 13 13 14 13 12 12 11 10 12 12 13 12
3 2 6 14 15 13 8 12 13 7 6 9 14 17 5 11 10 6 3 5 8 8 8 10 11 12 13 14 14 15 13 14 15 14 12 12 11 10 10 12 12 12 13 13
5 2 5 9 2 3 4 7 4 8 2 15 16 12 9 12 10 7 4 4 5 6 5 7 8 10 11 12 13 13 13 12 11 12 11 11 11 10 9 10 11 12 13 13
4 4 10 13 17 12 9 12 15 15 6 13 15 20 19 19 17 8 1 3 6 7 7 7 9 9 10 10 10 11 12 12 11 10 11 10 10 11 10 10 11 11 11 12
4 9 11 16 19 19 17 17 23 22 21 20 21 22 22 20 17 5 4 5 6 8 8 8 8 9 11 11 10 10 12 11 11 11 10 11 11 11 10 10 11 11 11 10
1 9 5 12 13 16 18 23 22 21 22 24 24 27 23 6 3 6 8 10 11 12 12 11 10 10 9 10 11 10 12 10 9 11 12 12 12 12 10 10 11 12 12 11
4 5 6 16 13 13 11 18 21 25 24 24 23 12 5 2 4 7 11 12 15 14 15 15 14 12 10 10 10 11 12 11 11 12 13 13 12 12 11 11 12 13 13 13
11 7 6 9 4 15 12 6 11 16 16 6 4 5 5 1 8 13 12 13 14 16 16 15 13 15 11 11 11 10 8 11 12 14 14 14 14 14 14 13 14 14 13 14
16 12 7 7 11 16 21 14 11 8 10 7 8 8 6 5 13 16 12 13 14 15 14 13 15 15 12 12 11 9 11 12 13 14 14 15 14 14 15 15 16 17 15 15
6 12 10 5 8 10 6 3 2 2 10 8 5 7 7 11 11 12 16 14 14 14 12 14 14 12 12 12 12 13 14 14 15 15 15 15 15 14 16 16 16 17 15 17
3 5 14 14 14 10 2 5 2 7 5 7 7 6 12 12 12 15 13 14 14 13 13 14 12 12 14 14 13 16 16 16 15 15 16 17 17 17 16 16 16 16 17 18
7 6 6 5 9 15 4 8 7 2 6 6 11 13 13 14 14 13 14 14 14 14 14 13 12 13 14 14 13 17 18 17 17 16 17 17 17 15 15 19 18 18 18 19
8 11 6 9 6 4 9 7 10 11 11 17 16 13 13 14 14 14 11 11 13 13 12 11 11 14 15 14 12 17 19 18 18 18 18 18 18 17 17 18 18 16 16 15
14 17 11 13 14 21 19 19 17 17 17 16 15 11 6 10 9 9 9 9 10 11 12 12 14 16 19 15 15 15 17 17 17 19 19 16 17 17 16 14 14 15 14 15
13 6 13 13 19 20 20 19 18 17 15 12 2 1 4 5 7 8 9 10 11 12 12 12 14 17 19 18 17 16 17 16 17 18 17 17 14 16 15 14 13 14 15 17
18 20 13 15 19 17 18 15 13 14 11 2 2 3 2 4 7 9 9 10 11 11 13 13 15 16 18 18 18 17 16 16 17 18 14 14 14 14 14 14 14 24 31 34
Wind_Direction
194 220 220 245 245 259 281 286 284 284 291 290 290 297 301 292 280 287 288 302 315 35 60 65 46 52 52 47 34 20 358 233 232 219 227 234 239 227 231 232 230 220 207 203
186 240 252 271 275 292 283 280 283 285 290 296 294 293 288 285 275 301 331 348 42 96 83 53 49 44 41 34 28 31 27 12 249 257 244 246 258 248 252 240 242 236 227 216
255 280 315 285 264 268 265 274 286 295 308 297 289 279 227 315 300 67 68 79 90 71 58 52 40 35 34 30 22 22 21 21 12 343 299 266 284 292 280 239 240 229 229 223
265 327 277 273 264 270 280 306 310 305 307 296 25 289 303 271 14 93 78 72 65 56 50 44 45 41 36 33 28 27 26 21 14 13 344 315 292 283 276 272 244 237 226 227
288 54 285 268 270 278 284 336 307 296 277 286 272 246 251 294 143 104 78 75 68 64 57 47 37 37 39 33 32 27 31 29 22 22 17 351 324 312 310 312 289 227 227 228
258 227 265 248 305 240 315 284 276 255 272 259 256 229 288 114 122 107 78 66 65 58 56 57 51 39 36 32 30 27 26 29 25 21 19 8 347 337 327 316 306 287 242 234
218 245 198 227 258 193 242 278 315 274 208 256 78 325 253 34 87 113 109 82 67 61 49 37 31 34 39 38 38 32 22 21 18 25 31 22 6 347 336 333 316 302 273 247
263 276 183 169 219 290 276 260 244 286 293 299 304 261 239 80 109 103 97 85 62 47 41 37 39 39 36 35 33 33 32 25 22 23 20 21 25 13 350 338 324 307 307 296
222 247 199 202 244 254 102 216 252 246 277 268 250 262 141 128 126 114 91 69 51 46 41 34 29 26 30 28 29 26 22 24 24 20 20 18 17 12 6 354 336 327 316 298
319 290 261 65 129 222 245 354 208 140 241 255 259 247 264 203 145 86 52 42 27 15 17 18 19 16 17 16 15 14 18 16 16 17 11 15 12 6 358 350 349 337 319 307
308 254 272 281 217 267 209 234 210 352 238 249 261 251 113 89 82 58 34 24 15 8 15 9 8 11 9 5 9 3 4 6 7 9 11 6 358 356 353 349 345 342 328 321
203 171 266 255 278 282 265 269 252 242 225 237 264 259 139 108 94 73 45 0 360 3 10 9 2 1 360 360 356 355 359 2 3 0 355 353 349 349 346 344 338 332 330 329
19 248 284 294 20 36 265 348 321 324 234 254 271 272 65 130 115 66 15 346 323 327 341 347 353 353 350 347 346 345 344 345 349 350 342 339 338 337 337 336 331 327 328 326
86 251 239 259 284 330 280 284 278 275 252 288 272 285 289 289 312 23 200 318 338 314 304 321 330 332 332 330 330 328 327 330 332 330 329 322 324 322 323 328 324 321 320 317
267 261 256 262 277 293 294 284 269 267 270 263 279 284 283 291 317 343 292 307 317 326 292 285 307 307 309 309 305 308 312 313 315 313 311 306 308 308 309 318 318 313 308 307
171 266 299 270 268 272 274 265 264 265 264 260 264 267 272 337 328 305 325 331 318 314 319 300 285 298 302 285 286 289 292 294 299 298 295 299 303 304 296 303 305 306 304 304
235 257 267 267 289 312 278 256 258 262 265 269 271 304 68 145 312 325 326 322 313 312 318 317 304 299 302 298 288 278 279 290 293 290 293 293 294 293 291 300 305 301 301 300
244 221 248 276 304 256 261 322 286 279 285 304 237 159 155 161 323 314 314 303 304 318 313 310 305 300 299 299 300 296 279 273 270 274 277 280 283 286 291 296 297 299 299 300
234 246 255 247 240 282 296 292 261 244 279 195 223 186 193 303 320 291 301 322 316 310 310 303 303 301 309 305 315 307 292 287 282 278 278 281 279 280 288 289 294 298 303 299
232 236 229 176 245 260 332 104 113 118 269 189 159 193 232 306 292 295 321 312 302 299 305 310 308 317 306 317 320 304 299 297 294 293 287 285 283 278 277 276 282 289 289 287
168 216 225 235 243 262 323 123 146 252 296 145 170 238 282 275 273 292 299 296 299 304 315 322 322 316 310 314 316 304 301 296 301 301 297 291 286 282 280 281 281 283 285 285
208 213 214 237 255 263 112 136 224 282 166 206 278 301 283 282 282 291 298 302 313 315 319 326 313 305 309 315 315 304 298 307 307 306 301 299 298 295 292 289 286 282 280 279
239 234 264 217 227 216 186 249 243 270 288 288 293 289 292 289 287 301 310 313 311 315 315 318 312 307 303 308 314 304 304 311 309 307 303 301 299 296 293 290 286 283 277 272
253 251 245 256 252 263 272 271 272 277 282 284 286 298 294 279 300 301 307 308 309 309 312 320 316 306 302 312 308 301 307 308 307 302 300 299 294 292 286 280 277 276 276 275
242 274 243 255 257 264 262 263 266 271 276 280 18 233 279 297 294 300 306 309 308 311 313 313 307 300 300 308 305 307 307 307 300 298 298 296 290 287 287 279 279 275 273 273
244 246 248 252 255 264 270 284 292 291 287 227 214 258 278 318 305 313 306 310 310 309 311 302 300 299 300 302 303 304 304 301 298 296 294 291 292 287 284 283 280 273 279 281